CBY01 VTUK-VTBD

Flight info

Callsign CBY01
Flight time 0h 49m
Altitude 14000
Route NEMTE1B NEMTE Y2 UBLOD ENDUU3A
Aircraft AT76/M-SDFGIRY/S

Departure

Time 2026-05-06 09:36
Airport Khon Kaen Airport (VTUK)

Arrival

Time 2026-05-06 10:25
Airport Don Mueang International Airport (VTBD)
Time Latitude Longitude Altitude Speed Heading
2026-05-06 09:22 16.46605 102.78653 699 ft 0 kts 123°
2026-05-06 09:30 16.46600 102.78653 672 ft 0 kts 82°
2026-05-06 09:30 16.46602 102.78648 699 ft 7 kts 352°
2026-05-06 09:30 16.46611 102.78641 672 ft 13 kts 323°
2026-05-06 09:32 16.46618 102.78635 672 ft 6 kts 314°
2026-05-06 09:32 16.46654 102.78594 672 ft 7 kts 332°
2026-05-06 09:32 16.46717 102.78608 672 ft 15 kts 27°
2026-05-06 09:33 16.46820 102.78675 673 ft 18 kts 29°
2026-05-06 09:33 16.46916 102.78613 669 ft 20 kts 302°
2026-05-06 09:33 16.47030 102.78613 667 ft 22 kts 32°
2026-05-06 09:33 16.47181 102.78714 665 ft 29 kts 32°
2026-05-06 09:34 16.47362 102.78835 664 ft 30 kts 33°
2026-05-06 09:34 16.47518 102.78939 665 ft 25 kts 32°
2026-05-06 09:34 16.47673 102.79041 663 ft 27 kts 32°
2026-05-06 09:34 16.47808 102.79092 662 ft 5 kts 68°
2026-05-06 09:35 16.47788 102.79111 662 ft 5 kts 168°
2026-05-06 09:35 16.47770 102.79106 662 ft 3 kts 211°
2026-05-06 09:35 16.47640 102.79020 663 ft 46 kts 214°
2026-05-06 09:35 16.47222 102.78740 665 ft 96 kts 213°
2026-05-06 09:36 16.46537 102.78281 682 ft 134 kts 212°
2026-05-06 09:36 16.45736 102.77752 1019 ft 143 kts 209°
2026-05-06 09:36 16.44811 102.77245 1398 ft 157 kts 208°
2026-05-06 09:36 16.43787 102.76742 1706 ft 168 kts 205°
2026-05-06 09:37 16.42723 102.76097 1991 ft 182 kts 216°
2026-05-06 09:37 16.41744 102.75197 2368 ft 192 kts 221°
2026-05-06 09:37 16.40714 102.74322 2735 ft 190 kts 215°
2026-05-06 09:37 16.39604 102.73552 3009 ft 195 kts 211°
2026-05-06 09:38 16.38444 102.72812 3303 ft 196 kts 211°
2026-05-06 09:38 16.37284 102.72082 3570 ft 197 kts 210°
2026-05-06 09:38 16.36121 102.71306 3855 ft 198 kts 214°
2026-05-06 09:38 16.35000 102.70467 4141 ft 199 kts 216°
2026-05-06 09:39 16.33887 102.69604 4422 ft 200 kts 216°
2026-05-06 09:39 16.33142 102.69032 4619 ft 200 kts 216°
2026-05-06 09:39 16.31637 102.67887 4968 ft 201 kts 216°
2026-05-06 09:39 16.30885 102.67316 5147 ft 202 kts 216°
2026-05-06 09:40 16.29378 102.66179 5484 ft 203 kts 216°
2026-05-06 09:40 16.28229 102.65310 5746 ft 204 kts 216°
2026-05-06 09:40 16.26300 102.63852 6171 ft 205 kts 217°
2026-05-06 09:41 16.25156 102.62987 6411 ft 207 kts 217°
2026-05-06 09:41 16.23992 102.62109 6652 ft 207 kts 217°
2026-05-06 09:41 16.22819 102.61223 6870 ft 208 kts 216°
2026-05-06 09:41 16.21639 102.60330 7099 ft 210 kts 216°
2026-05-06 09:42 16.20455 102.59437 7327 ft 211 kts 216°
2026-05-06 09:42 16.19265 102.58540 7558 ft 212 kts 217°
2026-05-06 09:42 16.18069 102.57637 7776 ft 213 kts 217°
2026-05-06 09:42 16.16870 102.56733 7998 ft 214 kts 217°
2026-05-06 09:43 16.15657 102.55820 8217 ft 215 kts 217°
2026-05-06 09:43 16.14453 102.54912 8424 ft 216 kts 217°
2026-05-06 09:43 16.13242 102.54000 8633 ft 217 kts 217°
2026-05-06 09:43 16.12016 102.53075 8845 ft 218 kts 217°
2026-05-06 09:44 16.10786 102.52146 9062 ft 219 kts 217°
2026-05-06 09:44 16.09550 102.51216 9276 ft 220 kts 217°
2026-05-06 09:44 16.08305 102.50278 9477 ft 220 kts 217°
2026-05-06 09:44 16.07060 102.49344 9690 ft 221 kts 217°
2026-05-06 09:45 16.05809 102.48401 9881 ft 222 kts 217°
2026-05-06 09:45 16.04567 102.47467 10064 ft 223 kts 216°
2026-05-06 09:45 16.03306 102.46529 10248 ft 223 kts 216°
2026-05-06 09:45 16.02040 102.45596 10433 ft 223 kts 216°
2026-05-06 09:46 16.00766 102.44664 10618 ft 224 kts 216°
2026-05-06 09:46 15.99489 102.43729 10801 ft 224 kts 216°
2026-05-06 09:46 15.98210 102.42792 10987 ft 225 kts 216°
2026-05-06 09:46 15.96930 102.41853 11154 ft 225 kts 216°
2026-05-06 09:47 15.95646 102.40911 11325 ft 226 kts 216°
2026-05-06 09:47 15.94360 102.39967 11499 ft 226 kts 216°
2026-05-06 09:47 15.93083 102.39028 11677 ft 227 kts 216°
2026-05-06 09:47 15.91794 102.38082 11851 ft 227 kts 216°
2026-05-06 09:48 15.90500 102.37132 12022 ft 228 kts 216°
2026-05-06 09:48 15.89199 102.36179 12183 ft 228 kts 216°
2026-05-06 09:48 15.87900 102.35225 12351 ft 229 kts 216°
2026-05-06 09:48 15.86597 102.34269 12516 ft 229 kts 216°
2026-05-06 09:49 15.85309 102.33325 12669 ft 230 kts 216°
2026-05-06 09:49 15.84002 102.32366 12821 ft 230 kts 216°
2026-05-06 09:49 15.82692 102.31407 12974 ft 231 kts 216°
2026-05-06 09:49 15.81379 102.30444 13124 ft 231 kts 216°
2026-05-06 09:50 15.80061 102.29480 13266 ft 231 kts 216°
2026-05-06 09:50 15.78742 102.28514 13412 ft 232 kts 216°
2026-05-06 09:50 15.77424 102.27548 13551 ft 232 kts 216°
2026-05-06 09:50 15.76120 102.26592 13694 ft 232 kts 216°
2026-05-06 09:51 15.74798 102.25625 13816 ft 232 kts 216°
2026-05-06 09:51 15.73474 102.24654 13901 ft 234 kts 216°
2026-05-06 09:51 15.72135 102.23674 13946 ft 238 kts 216°
2026-05-06 09:51 15.70772 102.22674 13965 ft 242 kts 216°
2026-05-06 09:52 15.69385 102.21659 13978 ft 245 kts 216°
2026-05-06 09:52 15.67978 102.20629 13981 ft 249 kts 216°
2026-05-06 09:52 15.66550 102.19586 13984 ft 252 kts 216°
2026-05-06 09:52 15.65132 102.18548 13982 ft 254 kts 216°
2026-05-06 09:53 15.63679 102.17488 13985 ft 256 kts 216°
2026-05-06 09:53 15.62217 102.16419 13983 ft 258 kts 216°
2026-05-06 09:53 15.60751 102.15346 13984 ft 259 kts 216°
2026-05-06 09:53 15.59272 102.14265 13983 ft 260 kts 216°
2026-05-06 09:54 15.57788 102.13181 13981 ft 261 kts 216°
2026-05-06 09:54 15.56303 102.12097 13979 ft 262 kts 216°
2026-05-06 09:54 15.54816 102.11012 13980 ft 262 kts 216°
2026-05-06 09:54 15.53321 102.09919 13977 ft 263 kts 216°
2026-05-06 09:55 15.51828 102.08829 13975 ft 263 kts 216°
2026-05-06 09:55 15.50330 102.07735 13976 ft 263 kts 216°
2026-05-06 09:55 15.48830 102.06640 13976 ft 263 kts 216°
2026-05-06 09:55 15.47329 102.05544 13975 ft 264 kts 216°
2026-05-06 09:56 15.45822 102.04447 13974 ft 267 kts 215°
2026-05-06 09:56 15.44286 102.03331 13975 ft 271 kts 216°
2026-05-06 09:56 15.42751 102.02210 13978 ft 275 kts 216°
2026-05-06 09:56 15.41178 102.01058 13980 ft 278 kts 216°
2026-05-06 09:57 15.39586 101.99894 13978 ft 281 kts 216°
2026-05-06 09:57 15.37980 101.98723 13977 ft 283 kts 216°
2026-05-06 09:57 15.36369 101.97551 13973 ft 284 kts 216°
2026-05-06 09:57 15.34749 101.96371 13977 ft 285 kts 216°
2026-05-06 09:58 15.33116 101.95183 13977 ft 286 kts 216°
2026-05-06 09:58 15.31483 101.93993 13979 ft 287 kts 216°
2026-05-06 09:58 15.29845 101.92799 13976 ft 288 kts 216°
2026-05-06 09:58 15.28207 101.91607 13980 ft 289 kts 216°
2026-05-06 09:59 15.26560 101.90408 13978 ft 289 kts 216°
2026-05-06 09:59 15.24910 101.89207 13980 ft 290 kts 216°
2026-05-06 09:59 15.23278 101.88020 13979 ft 290 kts 216°
2026-05-06 09:59 15.21629 101.86819 13981 ft 290 kts 216°
2026-05-06 10:00 15.19975 101.85616 13980 ft 290 kts 215°
2026-05-06 10:00 15.18322 101.84414 13983 ft 290 kts 215°
2026-05-06 10:00 15.16672 101.83215 13981 ft 290 kts 215°
2026-05-06 10:00 15.15020 101.82014 13981 ft 290 kts 216°
2026-05-06 10:01 15.13364 101.80810 13981 ft 290 kts 215°
2026-05-06 10:01 15.11713 101.79611 13981 ft 290 kts 216°
2026-05-06 10:01 15.10062 101.78411 13980 ft 290 kts 215°
2026-05-06 10:01 15.08427 101.77223 13982 ft 290 kts 216°
2026-05-06 10:02 15.06775 101.76024 13984 ft 290 kts 216°
2026-05-06 10:02 15.05123 101.74824 13981 ft 290 kts 216°
2026-05-06 10:02 15.03471 101.73624 13985 ft 290 kts 216°
2026-05-06 10:02 15.01818 101.72424 13983 ft 290 kts 216°
2026-05-06 10:03 15.00160 101.71222 13989 ft 290 kts 216°
2026-05-06 10:03 14.98504 101.70020 13986 ft 290 kts 216°
2026-05-06 10:03 14.96847 101.68817 13991 ft 291 kts 216°
2026-05-06 10:03 14.95194 101.67618 13989 ft 291 kts 216°
2026-05-06 10:04 14.93536 101.66417 13986 ft 291 kts 216°
2026-05-06 10:04 14.91878 101.65214 13993 ft 291 kts 215°
2026-05-06 10:04 14.90222 101.64014 13991 ft 291 kts 216°
2026-05-06 10:04 14.88587 101.62828 13991 ft 291 kts 215°
2026-05-06 10:05 14.86925 101.61625 13996 ft 291 kts 215°
2026-05-06 10:05 14.85266 101.60423 13996 ft 291 kts 216°
2026-05-06 10:05 14.83609 101.59223 13996 ft 291 kts 215°
2026-05-06 10:05 14.81948 101.58020 14006 ft 291 kts 216°
2026-05-06 10:06 14.80291 101.56820 14003 ft 291 kts 215°
2026-05-06 10:06 14.78629 101.55616 14001 ft 291 kts 215°
2026-05-06 10:06 14.76968 101.54414 14003 ft 291 kts 215°
2026-05-06 10:06 14.75305 101.53210 14003 ft 291 kts 215°
2026-05-06 10:07 14.73667 101.52025 14005 ft 291 kts 215°
2026-05-06 10:07 14.72005 101.50825 14006 ft 291 kts 215°
2026-05-06 10:07 14.70349 101.49627 14011 ft 291 kts 215°
2026-05-06 10:07 14.68685 101.48423 14010 ft 291 kts 215°
2026-05-06 10:08 14.67028 101.47225 14007 ft 291 kts 215°
2026-05-06 10:08 14.65371 101.46026 14009 ft 291 kts 215°
2026-05-06 10:08 14.63713 101.44830 14013 ft 291 kts 215°
2026-05-06 10:08 14.62093 101.43594 14009 ft 287 kts 224°
2026-05-06 10:09 14.60916 101.41960 14012 ft 288 kts 240°
2026-05-06 10:09 14.59947 101.40141 14009 ft 289 kts 243°
2026-05-06 10:09 14.59003 101.38302 14008 ft 290 kts 242°
2026-05-06 10:09 14.58016 101.36485 14007 ft 290 kts 240°
2026-05-06 10:10 14.56980 101.34693 14008 ft 290 kts 239°
2026-05-06 10:10 14.55946 101.32906 14005 ft 290 kts 239°
2026-05-06 10:10 14.54911 101.31114 14003 ft 290 kts 239°
2026-05-06 10:10 14.53880 101.29325 13999 ft 290 kts 239°
2026-05-06 10:11 14.52849 101.27533 14000 ft 290 kts 239°
2026-05-06 10:11 14.51834 101.25771 13996 ft 290 kts 239°
2026-05-06 10:11 14.50802 101.23981 13993 ft 290 kts 239°
2026-05-06 10:11 14.50118 101.22790 13992 ft 289 kts 240°
2026-05-06 10:12 14.49436 101.21135 13991 ft 287 kts 256°
2026-05-06 10:12 14.49102 101.19104 13991 ft 288 kts 263°
2026-05-06 10:12 14.48877 101.17044 13986 ft 289 kts 264°
2026-05-06 10:12 14.48640 101.14980 13988 ft 289 kts 263°
2026-05-06 10:13 14.48352 101.12953 13983 ft 289 kts 261°
2026-05-06 10:13 14.48025 101.10904 13982 ft 289 kts 261°
2026-05-06 10:13 14.47708 101.08860 13976 ft 289 kts 261°
2026-05-06 10:13 14.47395 101.06805 13976 ft 289 kts 261°
2026-05-06 10:14 14.47085 101.04752 13976 ft 289 kts 262°
2026-05-06 10:14 14.46764 101.02696 13859 ft 293 kts 261°
2026-05-06 10:14 14.46444 101.00603 13491 ft 296 kts 261°
2026-05-06 10:14 14.46122 100.98508 13077 ft 296 kts 261°
2026-05-06 10:15 14.45798 100.96408 12671 ft 296 kts 261°
2026-05-06 10:15 14.45463 100.94313 12264 ft 294 kts 258°
2026-05-06 10:15 14.44601 100.92428 11865 ft 292 kts 231°
2026-05-06 10:15 14.43173 100.90937 11478 ft 293 kts 219°
2026-05-06 10:16 14.41481 100.89773 11096 ft 292 kts 210°
2026-05-06 10:16 14.39721 100.88781 10722 ft 292 kts 207°
2026-05-06 10:16 14.37925 100.87800 10343 ft 292 kts 208°
2026-05-06 10:16 14.36144 100.86785 9969 ft 292 kts 209°
2026-05-06 10:17 14.34390 100.85734 9594 ft 291 kts 210°
2026-05-06 10:17 14.32642 100.84678 9181 ft 290 kts 210°
2026-05-06 10:17 14.30900 100.83633 8777 ft 289 kts 210°
2026-05-06 10:17 14.29192 100.82603 8387 ft 287 kts 210°
2026-05-06 10:18 14.27470 100.81568 7995 ft 285 kts 209°
2026-05-06 10:18 14.25757 100.80546 7610 ft 283 kts 209°
2026-05-06 10:18 14.24063 100.79528 7232 ft 279 kts 209°
2026-05-06 10:18 14.22394 100.78527 6862 ft 276 kts 209°
2026-05-06 10:19 14.20744 100.77540 6507 ft 272 kts 209°
2026-05-06 10:19 14.19110 100.76563 6146 ft 270 kts 209°
2026-05-06 10:19 14.17494 100.75592 5772 ft 268 kts 209°
2026-05-06 10:19 14.15883 100.74627 5395 ft 266 kts 209°
2026-05-06 10:20 14.14306 100.73685 5048 ft 264 kts 209°
2026-05-06 10:20 14.12738 100.72745 4811 ft 258 kts 209°
2026-05-06 10:20 14.11200 100.71820 4569 ft 254 kts 209°
2026-05-06 10:20 14.09682 100.70908 4317 ft 251 kts 209°
2026-05-06 10:21 14.08180 100.70004 4066 ft 249 kts 209°
2026-05-06 10:21 14.06688 100.69105 3774 ft 248 kts 209°
2026-05-06 10:21 14.05211 100.68209 3402 ft 237 kts 209°
2026-05-06 10:21 14.03871 100.67387 3009 ft 215 kts 208°
2026-05-06 10:22 14.02525 100.66888 2572 ft 200 kts 189°
2026-05-06 10:22 14.01207 100.66644 2275 ft 179 kts 192°
2026-05-06 10:22 14.00154 100.66136 2153 ft 162 kts 209°
2026-05-06 10:22 13.99221 100.65502 1793 ft 160 kts 214°
2026-05-06 10:23 13.98369 100.64885 1629 ft 141 kts 212°
2026-05-06 10:23 13.97564 100.64386 1252 ft 133 kts 205°
2026-05-06 10:23 13.96717 100.64037 977 ft 130 kts 199°
2026-05-06 10:23 13.95932 100.63596 799 ft 127 kts 209°
2026-05-06 10:24 13.95168 100.63125 614 ft 129 kts 211°
2026-05-06 10:24 13.94398 100.62656 453 ft 129 kts 210°
2026-05-06 10:24 13.93613 100.62200 303 ft 130 kts 208°
2026-05-06 10:24 13.92818 100.61757 140 ft 130 kts 209°
2026-05-06 10:25 13.92025 100.61313 23 ft 127 kts 208°
2026-05-06 10:25 13.91394 100.60960 13 ft 59 kts 207°
2026-05-06 10:25 13.91248 100.60929 14 ft 10 kts 120°
2026-05-06 10:25 13.91229 100.61005 14 ft 10 kts 68°
2026-05-06 10:26 13.91240 100.61056 14 ft 4 kts 118°
2026-05-06 10:26 13.91225 100.61083 14 ft 3 kts 132°
2026-05-06 10:26 13.91193 100.61076 14 ft 7 kts 209°
2026-05-06 10:26 13.91163 100.61059 14 ft 8 kts 208°
2026-05-06 10:27 13.91134 100.61043 14 ft 0 kts 208°